Back to Top

Language: 

My Weather Underground Personal Weather Station Historical Data with Graphs...

Delerius Weather Station Historical Data
Daily Summary for May 13, 2017 Units:  English    Metric   Both
« Previous Day
Next Day »
Daily Weekly Monthly Yearly Custom
  High: Low: Average:
Temperature: 61.5 °F 52.9 °F 56.3 °F
Dew Point: 51.7 °F 42.7 °F 47.9 °F
Humidity: 91 % 51 % 75 %
Wind Speed: 13.0 mph 2.0 mph 8.2 mph
Wind Gust: 24.0 mph - -
Wind:- - SSW
Pressure: 29.78 in 29.46 in -
Precipitation: 0.00 in    
Historical Graphs
 
 
Tabular Data for May 13, 2017
Time Temperature Dew Point Pressure Wind Wind Speed Wind Gust Humidity Rainfall Rate (Hourly) solar Conditions
00:04 56.5 °F 51.7 °F 29.46 in SSW 6.0 mph 11.0 mph 84 % 0.00 in 0 W/m2
00:09 56.5 °F 51.7 °F 29.46 in SSW 6.0 mph 11.0 mph 84 % 0.00 in 0 W/m2
00:14 56.5 °F 51.7 °F 29.46 in SSW 5.0 mph 11.0 mph 84 % 0.00 in 0 W/m2
00:19 56.3 °F 51.5 °F 29.46 in SSW 4.0 mph 11.0 mph 84 % 0.00 in 0 W/m2
00:24 56.1 °F 51.4 °F 29.47 in South 6.0 mph 12.0 mph 84 % 0.00 in 0 W/m2
00:29 55.9 °F 51.2 °F 29.46 in South 6.0 mph 14.0 mph 84 % 0.00 in 0 W/m2
00:34 55.8 °F 51.0 °F 29.46 in South 6.0 mph 14.0 mph 84 % 0.00 in 0 W/m2
00:39 55.6 °F 50.8 °F 29.47 in South 6.0 mph 14.0 mph 84 % 0.00 in 0 W/m2
00:44 55.4 °F 50.6 °F 29.47 in South 5.0 mph 10.0 mph 84 % 0.00 in 0 W/m2
00:49 55.2 °F 50.8 °F 29.47 in South 5.0 mph 12.0 mph 85 % 0.00 in 0 W/m2
00:54 55.2 °F 50.8 °F 29.46 in South 4.0 mph 12.0 mph 85 % 0.00 in 0 W/m2
00:59 55.0 °F 50.6 °F 29.47 in SSE 3.0 mph 7.0 mph 85 % 0.00 in 0 W/m2
01:05 55.0 °F 50.6 °F 29.46 in SSE 3.0 mph 9.0 mph 85 % 0.00 in 0 W/m2
01:10 55.0 °F 50.9 °F 29.47 in SSE 4.0 mph 11.0 mph 86 % 0.00 in 0 W/m2
01:15 55.2 °F 51.1 °F 29.47 in South 6.0 mph 13.0 mph 86 % 0.00 in 0 W/m2
01:20 55.2 °F 51.1 °F 29.47 in South 7.0 mph 13.0 mph 86 % 0.00 in 0 W/m2
01:25 55.2 °F 51.1 °F 29.47 in South 7.0 mph 18.0 mph 86 % 0.00 in 0 W/m2
01:30 55.0 °F 51.2 °F 29.47 in South 8.0 mph 23.0 mph 87 % 0.00 in 0 W/m2
01:35 54.9 °F 51.1 °F 29.46 in SSW 9.0 mph 23.0 mph 87 % 0.00 in 0 W/m2
01:40 54.7 °F 51.2 °F 29.46 in South 9.0 mph 16.0 mph 88 % 0.00 in 0 W/m2
01:45 54.3 °F 51.1 °F 29.46 in South 8.0 mph 15.0 mph 89 % 0.00 in 0 W/m2
01:50 54.1 °F 51.3 °F 29.47 in South 9.0 mph 16.0 mph 90 % 0.00 in 0 W/m2
01:55 54.1 °F 51.6 °F 29.47 in South 9.0 mph 16.0 mph 91 % 0.00 in 0 W/m2
02:00 54.0 °F 51.4 °F 29.47 in South 8.0 mph 13.0 mph 91 % 0.00 in 0 W/m2
02:05 54.0 °F 51.4 °F 29.47 in South 8.0 mph 14.0 mph 91 % 0.00 in 0 W/m2
02:10 54.0 °F 51.4 °F 29.47 in SSW 8.0 mph 15.0 mph 91 % 0.00 in 0 W/m2
02:15 54.0 °F 51.4 °F 29.47 in SSW 7.0 mph 15.0 mph 91 % 0.00 in 0 W/m2
02:20 54.0 °F 51.4 °F 29.48 in SSW 7.0 mph 13.0 mph 91 % 0.00 in 0 W/m2
02:25 54.0 °F 51.4 °F 29.48 in SSW 7.0 mph 12.0 mph 91 % 0.00 in 0 W/m2
02:30 54.0 °F 51.4 °F 29.48 in SSW 6.0 mph 12.0 mph 91 % 0.00 in 0 W/m2
02:35 54.0 °F 51.4 °F 29.48 in SSW 7.0 mph 12.0 mph 91 % 0.00 in 0 W/m2
02:40 54.0 °F 51.1 °F 29.48 in SSW 7.0 mph 15.0 mph 90 % 0.00 in 0 W/m2
02:45 54.0 °F 51.1 °F 29.48 in SSW 8.0 mph 15.0 mph 90 % 0.00 in 0 W/m2
02:50 54.0 °F 51.1 °F 29.48 in SSW 9.0 mph 14.0 mph 90 % 0.00 in 0 W/m2
02:55 54.0 °F 50.8 °F 29.48 in SSW 9.0 mph 14.0 mph 89 % 0.00 in 0 W/m2
03:00 54.0 °F 50.8 °F 29.48 in SSW 8.0 mph 14.0 mph 89 % 0.00 in 0 W/m2
03:05 54.0 °F 50.8 °F 29.48 in SSW 8.0 mph 15.0 mph 89 % 0.00 in 0 W/m2
03:10 54.0 °F 50.8 °F 29.48 in SSW 8.0 mph 15.0 mph 89 % 0.00 in 0 W/m2
03:15 54.0 °F 50.8 °F 29.48 in SSW 9.0 mph 15.0 mph 89 % 0.00 in 0 W/m2
03:20 53.8 °F 50.6 °F 29.49 in SSW 8.0 mph 14.0 mph 89 % 0.00 in 0 W/m2
03:26 53.6 °F 50.4 °F 29.49 in SSW 9.0 mph 16.0 mph 89 % 0.00 in 0 W/m2
03:31 53.6 °F 50.4 °F 29.49 in SSW 10.0 mph 20.0 mph 89 % 0.00 in 0 W/m2
03:36 53.6 °F 50.1 °F 29.49 in SSW 9.0 mph 20.0 mph 88 % 0.00 in 0 W/m2
03:41 53.6 °F 50.1 °F 29.49 in SSW 10.0 mph 19.0 mph 88 % 0.00 in 0 W/m2
03:46 53.6 °F 50.1 °F 29.49 in SSW 10.0 mph 19.0 mph 88 % 0.00 in 0 W/m2
03:51 53.6 °F 50.1 °F 29.49 in SSW 9.0 mph 15.0 mph 88 % 0.00 in 0 W/m2
03:56 53.6 °F 49.8 °F 29.49 in SSW 9.0 mph 14.0 mph 87 % 0.00 in 0 W/m2
04:01 53.8 °F 50.0 °F 29.49 in SSW 10.0 mph 18.0 mph 87 % 0.00 in 0 W/m2
04:06 53.8 °F 50.0 °F 29.49 in SSW 11.0 mph 19.0 mph 87 % 0.00 in 0 W/m2
04:11 53.6 °F 49.8 °F 29.49 in South 9.0 mph 19.0 mph 87 % 0.00 in 0 W/m2
04:16 53.4 °F 49.6 °F 29.50 in SSW 9.0 mph 19.0 mph 87 % 0.00 in 0 W/m2
04:21 53.4 °F 49.6 °F 29.50 in SSW 9.0 mph 19.0 mph 87 % 0.00 in 0 W/m2
04:26 53.2 °F 49.5 °F 29.50 in SSW 9.0 mph 18.0 mph 87 % 0.00 in 0 W/m2
04:31 53.2 °F 49.5 °F 29.50 in SSW 9.0 mph 18.0 mph 87 % 0.00 in 0 W/m2
04:36 53.2 °F 49.5 °F 29.50 in SSW 9.0 mph 20.0 mph 87 % 0.00 in 0 W/m2
04:41 53.2 °F 49.5 °F 29.50 in SSW 10.0 mph 20.0 mph 87 % 0.00 in 0 W/m2
04:46 53.2 °F 49.5 °F 29.50 in SSW 10.0 mph 19.0 mph 87 % 0.00 in 0 W/m2
04:51 53.1 °F 49.6 °F 29.50 in SSW 9.0 mph 18.0 mph 88 % 0.00 in 0 W/m2
04:56 53.1 °F 49.6 °F 29.50 in SSW 8.0 mph 15.0 mph 88 % 0.00 in 0 W/m2
05:01 52.9 °F 49.4 °F 29.50 in SSW 8.0 mph 15.0 mph 88 % 0.00 in 0 W/m2
05:06 52.9 °F 49.4 °F 29.50 in SSW 8.0 mph 15.0 mph 88 % 0.00 in 0 W/m2
05:11 52.9 °F 49.4 °F 29.50 in SSW 8.0 mph 19.0 mph 88 % 0.00 in 0 W/m2
05:16 52.9 °F 49.4 °F 29.50 in SSW 7.0 mph 19.0 mph 88 % 0.00 in 5 W/m2
05:22 52.9 °F 49.4 °F 29.50 in SSW 7.0 mph 18.0 mph 88 % 0.00 in 5 W/m2
05:27 52.9 °F 49.4 °F 29.51 in SSW 8.0 mph 18.0 mph 88 % 0.00 in 5 W/m2
05:32 52.9 °F 49.4 °F 29.51 in SSW 8.0 mph 16.0 mph 88 % 0.00 in 7 W/m2
05:37 52.9 °F 49.4 °F 29.51 in SSW 7.0 mph 18.0 mph 88 % 0.00 in 11 W/m2
05:42 52.9 °F 49.1 °F 29.51 in SSW 7.0 mph 18.0 mph 87 % 0.00 in 9 W/m2
05:47 52.9 °F 49.1 °F 29.51 in SSW 7.0 mph 18.0 mph 87 % 0.00 in 9 W/m2
05:52 53.1 °F 49.3 °F 29.51 in SSW 7.0 mph 18.0 mph 87 % 0.00 in 9 W/m2
05:57 53.1 °F 49.3 °F 29.51 in South 7.0 mph 13.0 mph 87 % 0.00 in 12 W/m2
06:02 53.1 °F 49.0 °F 29.51 in SSW 7.0 mph 19.0 mph 86 % 0.00 in 16 W/m2
06:07 53.2 °F 49.2 °F 29.52 in SSW 8.0 mph 19.0 mph 86 % 0.00 in 11 W/m2
06:12 53.2 °F 49.2 °F 29.52 in SSW 9.0 mph 19.0 mph 86 % 0.00 in 18 W/m2
06:17 53.2 °F 49.2 °F 29.52 in SSW 9.0 mph 18.0 mph 86 % 0.00 in 37 W/m2
06:22 53.2 °F 49.2 °F 29.52 in SSW 7.0 mph 18.0 mph 86 % 0.00 in 30 W/m2
06:27 53.2 °F 49.2 °F 29.52 in SSW 7.0 mph 16.0 mph 86 % 0.00 in 39 W/m2
06:32 53.2 °F 49.2 °F 29.52 in SSW 9.0 mph 16.0 mph 86 % 0.00 in 46 W/m2
06:37 53.2 °F 49.2 °F 29.52 in SSW 9.0 mph 16.0 mph 86 % 0.00 in 60 W/m2
06:42 53.2 °F 48.8 °F 29.53 in SSW 9.0 mph 19.0 mph 85 % 0.00 in 62 W/m2
06:47 53.4 °F 49.0 °F 29.53 in SSW 11.0 mph 24.0 mph 85 % 0.00 in 58 W/m2
06:52 53.4 °F 49.0 °F 29.53 in SSW 10.0 mph 24.0 mph 85 % 0.00 in 62 W/m2
06:57 53.4 °F 49.0 °F 29.53 in SSW 9.0 mph 18.0 mph 85 % 0.00 in 69 W/m2
07:02 53.4 °F 49.0 °F 29.54 in SSW 10.0 mph 19.0 mph 85 % 0.00 in 90 W/m2
07:07 53.4 °F 49.0 °F 29.54 in SSW 11.0 mph 21.0 mph 85 % 0.00 in 102 W/m2
07:10 53.6 °F 48.9 °F 29.54 in SSW 11.0 mph 21.0 mph 84 % 0.00 in 91 W/m2
07:15 53.8 °F 49.1 °F 29.55 in SSW 10.0 mph 24.0 mph 84 % 0.00 in 125 W/m2
07:20 54.0 °F 49.2 °F 29.55 in SSW 11.0 mph 24.0 mph 84 % 0.00 in 125 W/m2
07:25 54.0 °F 49.2 °F 29.55 in SSW 10.0 mph 19.0 mph 84 % 0.00 in 155 W/m2
07:30 54.1 °F 49.1 °F 29.55 in SW 10.0 mph 21.0 mph 83 % 0.00 in 174 W/m2
07:35 54.3 °F 49.3 °F 29.55 in SW 9.0 mph 21.0 mph 83 % 0.00 in 142 W/m2
07:40 54.5 °F 49.1 °F 29.56 in SSW 9.0 mph 20.0 mph 82 % 0.00 in 190 W/m2
07:45 54.5 °F 49.1 °F 29.56 in SW 10.0 mph 22.0 mph 82 % 0.00 in 176 W/m2
07:50 54.7 °F 49.3 °F 29.56 in SW 9.0 mph 22.0 mph 82 % 0.00 in 211 W/m2
07:55 55.0 °F 49.3 °F 29.56 in SW 9.0 mph 18.0 mph 81 % 0.00 in 176 W/m2
08:00 55.0 °F 49.3 °F 29.56 in WSW 9.0 mph 18.0 mph 81 % 0.00 in 148 W/m2
08:05 55.2 °F 49.2 °F 29.57 in WSW 10.0 mph 16.0 mph 80 % 0.00 in 93 W/m2
08:10 55.0 °F 49.0 °F 29.57 in SW 10.0 mph 16.0 mph 80 % 0.00 in 121 W/m2
08:15 55.0 °F 49.0 °F 29.57 in SW 8.0 mph 14.0 mph 80 % 0.00 in 176 W/m2
08:20 55.0 °F 49.3 °F 29.57 in SW 8.0 mph 15.0 mph 81 % 0.00 in 148 W/m2
08:25 55.2 °F 49.5 °F 29.57 in SW 8.0 mph 15.0 mph 81 % 0.00 in 178 W/m2
08:30 55.2 °F 49.5 °F 29.58 in SW 9.0 mph 14.0 mph 81 % 0.00 in 213 W/m2
08:33 55.4 °F 49.3 °F 29.58 in SW 9.0 mph 16.0 mph 80 % 0.00 in 192 W/m2
08:38 55.8 °F 49.7 °F 29.58 in SW 9.0 mph 16.0 mph 80 % 0.00 in 183 W/m2
08:43 56.1 °F 50.0 °F 29.58 in SW 9.0 mph 18.0 mph 80 % 0.00 in 566 W/m2
08:48 56.7 °F 50.2 °F 29.58 in SW 10.0 mph 19.0 mph 79 % 0.00 in 608 W/m2
08:53 57.2 °F 50.4 °F 29.58 in SW 9.0 mph 19.0 mph 78 % 0.00 in 411 W/m2
08:58 57.7 °F 50.6 °F 29.58 in SW 10.0 mph 18.0 mph 77 % 0.00 in 673 W/m2
09:03 58.1 °F 50.6 °F 29.58 in SW 10.0 mph 16.0 mph 76 % 0.00 in 645 W/m2
09:08 58.3 °F 50.4 °F 29.59 in SW 12.0 mph 22.0 mph 75 % 0.00 in 710 W/m2
09:13 58.3 °F 50.4 °F 29.59 in SW 13.0 mph 22.0 mph 75 % 0.00 in 153 W/m2
09:18 57.6 °F 49.7 °F 29.59 in SW 13.0 mph 24.0 mph 75 % 0.00 in 125 W/m2
09:23 57.0 °F 49.9 °F 29.60 in SW 13.0 mph 24.0 mph 77 % 0.00 in 216 W/m2
09:28 56.8 °F 50.1 °F 29.60 in SW 11.0 mph 22.0 mph 78 % 0.00 in 174 W/m2
09:33 56.5 °F 49.7 °F 29.60 in SSW 10.0 mph 18.0 mph 78 % 0.00 in 149 W/m2
09:38 56.3 °F 49.9 °F 29.61 in SSW 10.0 mph 18.0 mph 79 % 0.00 in 227 W/m2
09:43 56.1 °F 49.7 °F 29.61 in SW 10.0 mph 19.0 mph 79 % 0.00 in 220 W/m2
09:44 56.1 °F 49.7 °F 29.61 in SW 10.0 mph 19.0 mph 79 % 0.00 in 229 W/m2
09:49 56.1 °F 49.7 °F 29.61 in SW 10.0 mph 19.0 mph 79 % 0.00 in 250 W/m2
09:54 55.9 °F 49.2 °F 29.61 in SW 12.0 mph 21.0 mph 78 % 0.00 in 223 W/m2
09:59 56.1 °F 49.7 °F 29.61 in SW 12.0 mph 21.0 mph 79 % 0.00 in 234 W/m2
10:04 56.3 °F 49.5 °F 29.62 in SW 11.0 mph 18.0 mph 78 % 0.00 in 334 W/m2
10:09 56.5 °F 49.7 °F 29.62 in SW 10.0 mph 18.0 mph 78 % 0.00 in 181 W/m2
10:14 56.5 °F 49.7 °F 29.62 in SW 10.0 mph 21.0 mph 78 % 0.00 in 116 W/m2
10:19 56.1 °F 49.4 °F 29.62 in SW 11.0 mph 21.0 mph 78 % 0.00 in 118 W/m2
10:24 55.9 °F 49.5 °F 29.63 in SW 10.0 mph 20.0 mph 79 % 0.00 in 190 W/m2
10:29 55.9 °F 49.5 °F 29.63 in SW 7.0 mph 14.0 mph 79 % 0.00 in 221 W/m2
10:35 55.9 °F 49.2 °F 29.63 in SSW 7.0 mph 12.0 mph 78 % 0.00 in 174 W/m2
10:40 56.1 °F 49.4 °F 29.63 in SSW 9.0 mph 15.0 mph 78 % 0.00 in 127 W/m2
10:45 56.1 °F 49.7 °F 29.63 in SSW 8.0 mph 15.0 mph 79 % 0.00 in 113 W/m2
10:50 56.1 °F 49.4 °F 29.64 in SSW 8.0 mph 15.0 mph 78 % 0.00 in 90 W/m2
10:55 55.9 °F 49.2 °F 29.64 in SSW 9.0 mph 18.0 mph 78 % 0.00 in 98 W/m2
11:00 55.9 °F 49.2 °F 29.64 in SSW 10.0 mph 18.0 mph 78 % 0.00 in 104 W/m2
11:05 55.9 °F 49.5 °F 29.64 in SSW 9.0 mph 16.0 mph 79 % 0.00 in 171 W/m2
11:10 55.9 °F 49.5 °F 29.64 in SSW 8.0 mph 16.0 mph 79 % 0.00 in 148 W/m2
11:15 55.9 °F 49.5 °F 29.65 in SSW 8.0 mph 15.0 mph 79 % 0.00 in 135 W/m2
11:20 55.9 °F 49.5 °F 29.65 in SSW 9.0 mph 15.0 mph 79 % 0.00 in 88 W/m2
11:25 55.9 °F 49.9 °F 29.65 in SSW 9.0 mph 16.0 mph 80 % 0.00 in 91 W/m2
11:30 55.6 °F 49.5 °F 29.66 in SSW 10.0 mph 16.0 mph 80 % 0.00 in 116 W/m2
11:35 55.2 °F 50.1 °F 29.66 in SSW 11.0 mph 22.0 mph 83 % 0.00 in 141 W/m2
11:40 54.9 °F 50.8 °F 29.66 in SW 10.0 mph 22.0 mph 86 % 0.00 in 162 W/m2
11:45 54.3 °F 50.2 °F 29.66 in SW 8.0 mph 14.0 mph 86 % 0.00 in 200 W/m2
11:50 54.3 °F 50.5 °F 29.66 in SW 8.0 mph 12.0 mph 87 % 0.00 in 197 W/m2
11:55 54.3 °F 50.8 °F 29.66 in SW 7.0 mph 12.0 mph 88 % 0.00 in 221 W/m2
12:00 54.7 °F 50.6 °F 29.66 in SSW 7.0 mph 12.0 mph 86 % 0.00 in 253 W/m2
12:05 54.9 °F 50.4 °F 29.66 in SSW 8.0 mph 12.0 mph 85 % 0.00 in 283 W/m2
12:10 55.2 °F 50.5 °F 29.66 in SSW 8.0 mph 13.0 mph 84 % 0.00 in 341 W/m2
12:15 55.8 °F 50.7 °F 29.66 in SSW 7.0 mph 13.0 mph 83 % 0.00 in 401 W/m2
12:20 56.5 °F 51.1 °F 29.66 in SSW 7.0 mph 12.0 mph 82 % 0.00 in 700 W/m2
12:25 57.0 °F 50.6 °F 29.66 in SSW 8.0 mph 15.0 mph 79 % 0.00 in 747 W/m2
12:30 57.9 °F 50.4 °F 29.66 in SSW 9.0 mph 15.0 mph 76 % 0.00 in 608 W/m2
12:35 58.6 °F 50.0 °F 29.66 in SSW 8.0 mph 15.0 mph 73 % 0.00 in 705 W/m2
12:40 59.2 °F 49.8 °F 29.66 in SSW 8.0 mph 15.0 mph 71 % 0.00 in 439 W/m2
12:45 59.0 °F 49.2 °F 29.67 in SSW 8.0 mph 16.0 mph 70 % 0.00 in 139 W/m2
12:50 58.8 °F 49.1 °F 29.67 in SW 9.0 mph 15.0 mph 70 % 0.00 in 95 W/m2
12:55 58.5 °F 48.3 °F 29.67 in SW 10.0 mph 16.0 mph 69 % 0.00 in 100 W/m2
13:00 58.3 °F 48.2 °F 29.67 in SW 9.0 mph 16.0 mph 69 % 0.00 in 246 W/m2
13:05 58.3 °F 48.5 °F 29.67 in SW 8.0 mph 16.0 mph 70 % 0.00 in 251 W/m2
13:10 58.5 °F 48.7 °F 29.68 in SW 8.0 mph 13.0 mph 70 % 0.00 in 179 W/m2
13:15 58.3 °F 47.8 °F 29.68 in SW 8.0 mph 13.0 mph 68 % 0.00 in 130 W/m2
13:20 58.3 °F 47.0 °F 29.68 in WSW 9.0 mph 16.0 mph 66 % 0.00 in 86 W/m2
13:25 57.9 °F 45.8 °F 29.68 in WSW 10.0 mph 19.0 mph 64 % 0.00 in 100 W/m2
13:31 57.6 °F 45.9 °F 29.68 in WSW 11.0 mph 19.0 mph 65 % 0.00 in 83 W/m2
13:36 57.4 °F 45.7 °F 29.68 in SW 11.0 mph 19.0 mph 65 % 0.00 in 90 W/m2
13:41 57.0 °F 45.8 °F 29.69 in SW 11.0 mph 19.0 mph 66 % 0.00 in 83 W/m2
13:46 57.0 °F 46.2 °F 29.69 in WSW 11.0 mph 19.0 mph 67 % 0.00 in 104 W/m2
13:51 57.0 °F 46.2 °F 29.69 in WSW 10.0 mph 19.0 mph 67 % 0.00 in 151 W/m2
13:56 57.0 °F 46.2 °F 29.69 in SW 10.0 mph 18.0 mph 67 % 0.00 in 209 W/m2
14:01 57.0 °F 46.2 °F 29.69 in SW 10.0 mph 18.0 mph 67 % 0.00 in 137 W/m2
14:06 57.2 °F 46.3 °F 29.69 in SW 9.0 mph 15.0 mph 67 % 0.00 in 176 W/m2
14:11 57.4 °F 46.5 °F 29.70 in SW 9.0 mph 16.0 mph 67 % 0.00 in 265 W/m2
14:16 57.6 °F 46.7 °F 29.70 in SW 8.0 mph 16.0 mph 67 % 0.00 in 287 W/m2
14:21 57.9 °F 47.0 °F 29.70 in SW 7.0 mph 12.0 mph 67 % 0.00 in 269 W/m2
14:26 58.3 °F 47.4 °F 29.70 in SW 9.0 mph 19.0 mph 67 % 0.00 in 290 W/m2
14:31 58.5 °F 46.7 °F 29.70 in SW 11.0 mph 20.0 mph 65 % 0.00 in 227 W/m2
14:36 58.5 °F 46.3 °F 29.70 in SW 12.0 mph 21.0 mph 64 % 0.00 in 160 W/m2
14:41 58.3 °F 45.7 °F 29.70 in WSW 12.0 mph 21.0 mph 63 % 0.00 in 120 W/m2
14:46 57.9 °F 45.8 °F 29.70 in SW 11.0 mph 19.0 mph 64 % 0.00 in 181 W/m2
14:51 57.9 °F 45.8 °F 29.70 in SW 10.0 mph 16.0 mph 64 % 0.00 in 301 W/m2
14:56 58.3 °F 46.6 °F 29.70 in SW 8.0 mph 15.0 mph 65 % 0.00 in 504 W/m2
15:01 59.2 °F 47.0 °F 29.70 in SW 10.0 mph 20.0 mph 64 % 0.00 in 846 W/m2
15:06 59.9 °F 47.3 °F 29.70 in SW 11.0 mph 20.0 mph 63 % 0.00 in 427 W/m2
15:11 60.1 °F 47.0 °F 29.70 in SW 10.0 mph 20.0 mph 62 % 0.00 in 330 W/m2
15:16 59.9 °F 46.8 °F 29.71 in SW 10.0 mph 16.0 mph 62 % 0.00 in 315 W/m2
15:21 59.7 °F 46.7 °F 29.71 in SW 10.0 mph 16.0 mph 62 % 0.00 in 308 W/m2
15:26 59.7 °F 46.7 °F 29.71 in SW 10.0 mph 16.0 mph 62 % 0.00 in 304 W/m2
15:31 59.9 °F 46.8 °F 29.71 in WSW 10.0 mph 18.0 mph 62 % 0.00 in 297 W/m2
15:36 59.5 °F 44.7 °F 29.71 in SW 11.0 mph 22.0 mph 58 % 0.00 in 308 W/m2
15:41 59.5 °F 44.7 °F 29.71 in SW 12.0 mph 22.0 mph 58 % 0.00 in 318 W/m2
15:46 59.5 °F 44.7 °F 29.71 in SW 12.0 mph 20.0 mph 58 % 0.00 in 308 W/m2
15:51 59.7 °F 44.5 °F 29.71 in SW 11.0 mph 20.0 mph 57 % 0.00 in 216 W/m2
15:56 59.5 °F 44.7 °F 29.71 in SW 10.0 mph 18.0 mph 58 % 0.00 in 202 W/m2
16:01 59.4 °F 44.6 °F 29.71 in SW 10.0 mph 16.0 mph 58 % 0.00 in 172 W/m2
16:06 59.4 °F 45.5 °F 29.71 in SW 9.0 mph 16.0 mph 60 % 0.00 in 162 W/m2
16:11 58.8 °F 45.0 °F 29.72 in SSW 11.0 mph 23.0 mph 60 % 0.00 in 174 W/m2
16:16 58.6 °F 44.8 °F 29.72 in SSW 11.0 mph 23.0 mph 60 % 0.00 in 195 W/m2
16:22 58.5 °F 44.2 °F 29.72 in SSW 11.0 mph 20.0 mph 59 % 0.00 in 200 W/m2
16:27 58.3 °F 43.6 °F 29.72 in SW 11.0 mph 20.0 mph 58 % 0.00 in 214 W/m2
16:32 58.3 °F 43.6 °F 29.72 in SW 11.0 mph 21.0 mph 58 % 0.00 in 188 W/m2
16:37 58.3 °F 43.6 °F 29.72 in SW 11.0 mph 20.0 mph 58 % 0.00 in 206 W/m2
16:42 57.9 °F 43.2 °F 29.72 in SSW 11.0 mph 21.0 mph 58 % 0.00 in 279 W/m2
16:47 58.3 °F 43.6 °F 29.72 in SSW 11.0 mph 21.0 mph 58 % 0.00 in 392 W/m2
16:52 58.6 °F 43.9 °F 29.72 in SSW 10.0 mph 19.0 mph 58 % 0.00 in 482 W/m2
16:57 59.0 °F 43.8 °F 29.72 in SSW 10.0 mph 19.0 mph 57 % 0.00 in 446 W/m2
17:02 59.7 °F 43.5 °F 29.72 in SSW 10.0 mph 19.0 mph 55 % 0.00 in 724 W/m2
17:07 60.3 °F 43.5 °F 29.72 in SW 10.0 mph 19.0 mph 54 % 0.00 in 638 W/m2
17:12 60.6 °F 43.4 °F 29.72 in SSW 11.0 mph 19.0 mph 53 % 0.00 in 570 W/m2
17:17 61.0 °F 42.7 °F 29.72 in SSW 11.0 mph 18.0 mph 51 % 0.00 in 555 W/m2
17:22 61.2 °F 42.9 °F 29.72 in SSW 10.0 mph 18.0 mph 51 % 0.00 in 512 W/m2
17:27 61.2 °F 42.9 °F 29.72 in SSW 10.0 mph 16.0 mph 51 % 0.00 in 487 W/m2
17:32 61.2 °F 42.9 °F 29.72 in SSW 10.0 mph 19.0 mph 51 % 0.00 in 445 W/m2
17:37 61.2 °F 42.9 °F 29.72 in SSW 9.0 mph 19.0 mph 51 % 0.00 in 413 W/m2
17:42 61.5 °F 44.2 °F 29.72 in SW 8.0 mph 20.0 mph 53 % 0.00 in 355 W/m2
17:47 61.3 °F 44.5 °F 29.72 in SW 10.0 mph 20.0 mph 54 % 0.00 in 327 W/m2
17:52 61.0 °F 44.7 °F 29.72 in SW 10.0 mph 16.0 mph 55 % 0.00 in 91 W/m2
17:57 60.4 °F 45.1 °F 29.73 in SW 9.0 mph 15.0 mph 57 % 0.00 in 77 W/m2
18:02 59.9 °F 45.5 °F 29.73 in SW 9.0 mph 18.0 mph 59 % 0.00 in 116 W/m2
18:07 59.5 °F 45.6 °F 29.73 in SW 10.0 mph 18.0 mph 60 % 0.00 in 153 W/m2
18:12 59.4 °F 45.9 °F 29.73 in SW 9.0 mph 16.0 mph 61 % 0.00 in 181 W/m2
18:17 59.5 °F 46.5 °F 29.73 in SW 7.0 mph 12.0 mph 62 % 0.00 in 218 W/m2
18:23 59.7 °F 46.7 °F 29.74 in SW 8.0 mph 15.0 mph 62 % 0.00 in 283 W/m2
18:28 59.9 °F 46.4 °F 29.74 in SW 10.0 mph 16.0 mph 61 % 0.00 in 434 W/m2
18:33 60.3 °F 46.8 °F 29.74 in SW 10.0 mph 16.0 mph 61 % 0.00 in 346 W/m2
18:38 60.4 °F 46.5 °F 29.74 in SW 9.0 mph 14.0 mph 60 % 0.00 in 297 W/m2
18:43 60.4 °F 46.5 °F 29.74 in SW 9.0 mph 13.0 mph 60 % 0.00 in 200 W/m2
18:48 60.3 °F 46.3 °F 29.74 in SSW 10.0 mph 18.0 mph 60 % 0.00 in 188 W/m2
18:53 60.1 °F 46.6 °F 29.74 in SSW 10.0 mph 18.0 mph 61 % 0.00 in 146 W/m2
18:58 60.1 °F 46.6 °F 29.74 in SSW 9.0 mph 15.0 mph 61 % 0.00 in 158 W/m2
19:03 59.7 °F 46.7 °F 29.74 in SW 9.0 mph 15.0 mph 62 % 0.00 in 139 W/m2
19:08 59.7 °F 46.7 °F 29.74 in SSW 8.0 mph 15.0 mph 62 % 0.00 in 123 W/m2
19:13 59.7 °F 46.2 °F 29.74 in SSW 8.0 mph 15.0 mph 61 % 0.00 in 121 W/m2
19:18 59.7 °F 46.2 °F 29.74 in SSW 8.0 mph 15.0 mph 61 % 0.00 in 95 W/m2
19:23 59.5 °F 45.6 °F 29.74 in SSW 8.0 mph 15.0 mph 60 % 0.00 in 69 W/m2
19:28 59.5 °F 45.6 °F 29.74 in SSW 8.0 mph 15.0 mph 60 % 0.00 in 63 W/m2
19:33 59.4 °F 45.5 °F 29.74 in SSW 7.0 mph 13.0 mph 60 % 0.00 in 62 W/m2
19:38 59.4 °F 45.5 °F 29.75 in SSW 6.0 mph 11.0 mph 60 % 0.00 in 60 W/m2
19:43 59.2 °F 45.3 °F 29.74 in SSW 5.0 mph 10.0 mph 60 % 0.00 in 56 W/m2
19:48 59.2 °F 45.7 °F 29.75 in South 5.0 mph 10.0 mph 61 % 0.00 in 60 W/m2
19:53 59.2 °F 45.3 °F 29.75 in SSW 6.0 mph 10.0 mph 60 % 0.00 in 62 W/m2
19:58 59.0 °F 45.6 °F 29.75 in South 5.0 mph 10.0 mph 61 % 0.00 in 49 W/m2
20:03 59.0 °F 45.1 °F 29.75 in South 5.0 mph 12.0 mph 60 % 0.00 in 40 W/m2
20:08 58.8 °F 45.4 °F 29.75 in South 6.0 mph 12.0 mph 61 % 0.00 in 37 W/m2
20:14 58.8 °F 45.4 °F 29.75 in SSW 5.0 mph 9.0 mph 61 % 0.00 in 35 W/m2
20:19 58.8 °F 45.4 °F 29.75 in SSW 5.0 mph 8.0 mph 61 % 0.00 in 35 W/m2
20:24 58.6 °F 45.2 °F 29.76 in SSW 5.0 mph 7.0 mph 61 % 0.00 in 30 W/m2
20:29 58.6 °F 45.7 °F 29.76 in SSW 4.0 mph 7.0 mph 62 % 0.00 in 23 W/m2
20:34 58.5 °F 45.5 °F 29.76 in SSW 3.0 mph 6.0 mph 62 % 0.00 in 18 W/m2
20:39 58.3 °F 45.3 °F 29.76 in South 4.0 mph 7.0 mph 62 % 0.00 in 14 W/m2
20:44 57.9 °F 45.4 °F 29.76 in SSE 4.0 mph 7.0 mph 63 % 0.00 in 12 W/m2
20:49 57.7 °F 45.2 °F 29.76 in SSE 4.0 mph 7.0 mph 63 % 0.00 in 7 W/m2
20:54 57.6 °F 45.5 °F 29.76 in SSE 5.0 mph 7.0 mph 64 % 0.00 in 5 W/m2
20:59 57.2 °F 45.1 °F 29.77 in SSE 5.0 mph 9.0 mph 64 % 0.00 in 0 W/m2
21:00 57.2 °F 45.5 °F 29.77 in SSE 6.0 mph 9.0 mph 65 % 0.00 in 0 W/m2
21:05 56.8 °F 45.2 °F 29.77 in SSE 6.0 mph 11.0 mph 65 % 0.00 in 0 W/m2
21:10 56.7 °F 45.4 °F 29.77 in SSE 6.0 mph 11.0 mph 66 % 0.00 in 0 W/m2
21:15 56.5 °F 45.3 °F 29.77 in SSE 5.0 mph 8.0 mph 66 % 0.00 in 0 W/m2
21:20 56.3 °F 45.1 °F 29.77 in SSE 5.0 mph 8.0 mph 66 % 0.00 in 0 W/m2
21:25 56.1 °F 45.3 °F 29.77 in SSE 5.0 mph 10.0 mph 67 % 0.00 in 0 W/m2
21:30 55.9 °F 45.1 °F 29.77 in SSE 6.0 mph 10.0 mph 67 % 0.00 in 0 W/m2
21:35 55.6 °F 45.2 °F 29.77 in SSE 6.0 mph 9.0 mph 68 % 0.00 in 0 W/m2
21:40 55.4 °F 45.4 °F 29.78 in SSE 6.0 mph 9.0 mph 69 % 0.00 in 0 W/m2
21:45 55.2 °F 45.2 °F 29.78 in SSE 6.0 mph 9.0 mph 69 % 0.00 in 0 W/m2
21:50 55.2 °F 45.2 °F 29.78 in SSE 6.0 mph 10.0 mph 69 % 0.00 in 0 W/m2
21:56 55.2 °F 45.6 °F 29.78 in SSE 7.0 mph 12.0 mph 70 % 0.00 in 0 W/m2
22:01 55.2 °F 45.6 °F 29.78 in SSE 7.0 mph 13.0 mph 70 % 0.00 in 0 W/m2
22:06 55.2 °F 45.6 °F 29.78 in South 7.0 mph 13.0 mph 70 % 0.00 in 0 W/m2
22:11 55.2 °F 45.6 °F 29.78 in South 7.0 mph 13.0 mph 70 % 0.00 in 0 W/m2
22:16 55.4 °F 45.4 °F 29.78 in SSE 7.0 mph 13.0 mph 69 % 0.00 in 0 W/m2
22:21 55.6 °F 45.6 °F 29.78 in SSE 7.0 mph 11.0 mph 69 % 0.00 in 0 W/m2
22:26 55.4 °F 45.4 °F 29.78 in SSE 6.0 mph 11.0 mph 69 % 0.00 in 0 W/m2
22:31 55.2 °F 45.6 °F 29.78 in SSE 5.0 mph 9.0 mph 70 % 0.00 in 0 W/m2
22:36 55.0 °F 45.4 °F 29.78 in SE 5.0 mph 8.0 mph 70 % 0.00 in 0 W/m2
22:41 54.9 °F 45.3 °F 29.78 in SE 5.0 mph 9.0 mph 70 % 0.00 in 0 W/m2
22:46 54.7 °F 45.5 °F 29.78 in ESE 4.0 mph 9.0 mph 71 % 0.00 in 0 W/m2
22:51 54.5 °F 45.3 °F 29.78 in ESE 4.0 mph 7.0 mph 71 % 0.00 in 0 W/m2
22:56 54.3 °F 45.1 °F 29.78 in ESE 3.0 mph 8.0 mph 71 % 0.00 in 0 W/m2
23:01 54.0 °F 45.1 °F 29.78 in ESE 2.0 mph 8.0 mph 72 % 0.00 in 0 W/m2
23:06 53.8 °F 45.3 °F 29.78 in ESE 2.0 mph 7.0 mph 73 % 0.00 in 0 W/m2
23:11 53.4 °F 45.0 °F 29.78 in ESE 2.0 mph 7.0 mph 73 % 0.00 in 0 W/m2
23:16 53.2 °F 45.2 °F 29.78 in ESE 3.0 mph 6.0 mph 74 % 0.00 in 0 W/m2
23:21 53.1 °F 45.0 °F 29.78 in SE 3.0 mph 6.0 mph 74 % 0.00 in 0 W/m2
23:26 53.1 °F 45.0 °F 29.78 in SSE 3.0 mph 7.0 mph 74 % 0.00 in 0 W/m2
23:31 53.1 °F 45.3 °F 29.78 in SSE 3.0 mph 8.0 mph 75 % 0.00 in 0 W/m2
23:36 53.1 °F 45.3 °F 29.78 in SE 3.0 mph 8.0 mph 75 % 0.00 in 0 W/m2
23:41 53.1 °F 45.0 °F 29.78 in SE 5.0 mph 8.0 mph 74 % 0.00 in 0 W/m2
23:46 53.1 °F 45.0 °F 29.78 in SE 6.0 mph 12.0 mph 74 % 0.00 in 0 W/m2
23:52 53.1 °F 45.0 °F 29.78 in SE 6.0 mph 12.0 mph 74 % 0.00 in 0 W/m2
23:57 53.1 °F 45.0 °F 29.78 in SE 7.0 mph 11.0 mph 74 % 0.00 in 0 W/m2
Delerius-Weather
Compliments of Weather Underground - 2.25 mb

Data updates at regular intervals.